STARLINK-31846, 60126

Orbit data source: Space-Track

STARLINK-31846, 60126 is a payload satellite owned by SpaceX/Seattle (US) in LEO that was launched on Mon, 24 Jun 2024 UTC via an FALCON 9 launch vehicle from the Air Force Western Test Range (AFWTR). Payload-class satellites include a variety of spacecraft equipped with specific instruments for various scientific and technological missions. These include communications satellites like Starlink; space stations such as the ISS; scientific satellites like the Hubble; Earth observation satellites from companies like Planet Labs, Umbra, and HawkEye 360; GPS; miniature CubeSats for education and research; and military/defense satellites.

Loading next visibility...
Identifier
60126, 2024-118P
Orbit
LEO
Country
Flag of USUS
Related business
Manufacturer
SpaceX/Seattle
Mission
Operational Commercial Communications
Bus & Motor
STARLINK V2M, Unknown motor
Mass
730 kg wet, ~700 kg dry
Launch date (UTC)
2024-06-24 (2 years ago)
Launch vehicle
FALCON 9
Launch site
Air Force Western Test Range (AFWTR)
Object type
Payload
Rocket body
Debris
Shape & HBR
Box + 2 Pan, 17.7 m
Radar Cross Section
33.884 m², Large (>1 m²)

Expand to show TLE details & history
Last TLE update: 5 hours ago

TLE from 5 hours ago
0 STARLINK-31846
1 60126U 24118P   26127.19106666  .00000299  00000-0  22230-4 0  9997
2 60126  53.1594 114.9546 0001144  86.1720 273.9411 15.30195860104659
Epoch: 2026-05-07T04:35Z
TLE epoch observation values (Epoch: 2026-05-07T04:35:08.159Z)
Latitude
-0.00006°
Longitude
-178.87019°
Altitude
476.073 km
Speed
7.629 km/s
True Right ascension
07h 39m 49s
True Declination
0° 00' 00"
Sunlit
Object was in daylight at epoch
Visualization orbit readout
Latitude
Unknown
Longitude
Unknown
Altitude
Unknown
Speed
Unknown
Apparent Right ascension
Unknown
Apparent Declination
Unknown
Sunlit
N/A
Visualization observer readout
Local Sidereal Time
17:42:06
Azimuth
Unknown
Elevation
Unknown
Doppler factor
Unknown
Orbital elements
Apogee altitude
476.268 km
Perigee altitude
474.7 km
Semi-major axis
6,853.621 km
Eccentricity
0.00011
Inclination
53.1594°
RAAN
114.9546°
Arg. of periapsis
86.172°
True anomaly
273.92802°
Mean anomaly
273.9411°
Eccentric anomaly
273.93456°
Mean motion
3.82528 °/min
Orbital period
94.11 mins
BSTAR
0.00002223
Loading maneuver chart data...
Computing Atmospheric mass density...
Loading historical data...
Loading historical data...
Loading historical data...
Loading historical data...
Loading historical data...
Loading historical data...
Loading historical data...

Documentation

Showing up to 5 results
|